Date String (YYYY-MM-DD hh:mm:ss) UTC,Instrument flags,absolute air pressure of the measurement (hPa),sample flow rate (lpm),inlet stack bypass flow (lpm),air temperature of the measurement (°C),ambient temperature measured by the external sensor (°C),aerosol sample conditioner tube jacket temperature (°C),OPC LED temperature (°C),internal box temperature (°C),relative humidity of the measurement (%),span deviation,mass concentration of particles derived from Lorenz-Mie calculation of OPC scattering (μg/m³),mass concentration of particles derived from Lorenz-Mie calculation of OPC scattering (μg/m³),mass concentration of particles derived from Lorenz-Mie calculation of OPC scattering (μg/m³)
DateTimeUTC,F1_M11,P_M11,Q1_M11,Q2_M11,T1_M11,T2_M11,T3_M11,T4_M11,T5_M11,U1_M11,ZSPAN_M11,X0_M11,X2_M11,X1_M11
2023-08-06 23:00:00,SystemResetWarning,0836.2,5.00,000.00,029.3,027.2,000.0,037.9,030.9,32.2,-000.4,0013.08,0008.51,0007.93
2023-08-06 23:01:00,SystemResetWarning,0836.2,5.01,000.00,029.3,027.4,000.0,037.9,030.9,31.3,-000.1,0013.02,0008.47,0007.92
2023-08-06 23:02:00,SystemResetWarning,0836.3,5.00,000.00,029.4,027.6,000.0,037.9,031.0,32.0,0000.0,0012.91,0008.44,0007.92
2023-08-06 23:03:00,SystemResetWarning,0836.3,4.99,000.00,029.4,027.8,000.0,038.0,031.0,32.4,0000.3,0012.77,0008.46,0007.93
2023-08-06 23:04:00,SystemResetWarning,0836.2,4.99,000.00,029.4,027.9,000.0,038.0,031.1,31.2,0000.3,0012.80,0008.45,0007.91
2023-08-06 23:05:00,SystemResetWarning,0836.3,4.99,000.00,029.4,028.1,000.0,038.0,031.1,30.9,0000.1,0013.02,0008.48,0007.91
2023-08-06 23:06:00,SystemResetWarning,0836.3,5.01,000.00,029.5,028.2,000.0,038.0,031.1,31.1,-000.4,0013.58,0008.54,0007.94
2023-08-06 23:07:00,SystemResetWarning,0836.3,5.01,000.00,029.5,028.2,000.0,038.0,031.2,30.7,-001.0,0013.70,0008.56,0007.94
2023-08-06 23:08:00,SystemResetWarning,0836.3,5.01,000.00,029.5,028.3,000.0,038.0,031.2,30.9,-001.9,0013.65,0008.52,0007.91
2023-08-06 23:09:00,SystemResetWarning,0836.4,5.00,000.00,029.5,028.4,000.0,038.0,031.2,30.7,-001.9,0012.98,0008.47,0007.90
2023-08-06 23:10:00,SystemResetWarning,0836.4,4.99,000.00,029.6,028.4,000.0,038.1,031.2,30.7,-001.7,0012.37,0008.43,0007.90
2023-08-06 23:11:00,SystemResetWarning,0836.4,5.00,000.00,029.6,028.4,000.0,038.1,031.2,30.5,-001.7,0012.36,0008.45,0007.91
2023-08-06 23:12:00,SystemResetWarning,0836.6,5.00,000.00,029.6,028.5,000.0,038.1,031.3,31.4,-001.9,0013.39,0008.49,0007.93
2023-08-06 23:13:00,SystemResetWarning,0836.6,5.00,000.00,029.6,028.5,000.0,038.1,031.3,31.9,-002.0,0013.42,0008.50,0007.93
2023-08-06 23:14:00,SystemResetWarning,0836.6,4.98,000.00,029.6,027.2,000.0,038.0,031.2,31.1,-002.1,0013.68,0008.51,0007.94
2023-08-06 23:15:00,SystemResetWarning,0836.5,5.01,000.00,029.6,025.8,000.0,037.9,030.9,31.3,-001.8,0013.72,0008.51,0007.95
2023-08-06 23:16:00,SystemResetWarning,0836.5,5.01,000.00,029.5,025.5,000.0,037.8,030.7,31.0,-001.9,0013.52,0008.45,0007.92
2023-08-06 23:17:00,SystemResetWarning,0836.6,5.01,000.00,029.4,025.7,000.0,037.9,030.6,31.0,-001.7,0013.04,0008.40,0007.88
2023-08-06 23:18:00,SystemResetWarning,0836.6,5.00,000.00,029.3,026.1,000.0,037.9,030.7,31.2,-001.7,0012.94,0008.39,0007.90
2023-08-06 23:19:00,SystemResetWarning,0836.6,5.00,000.00,029.3,026.5,000.0,037.9,030.8,31.1,-001.9,0012.93,0008.41,0007.92
2023-08-06 23:20:00,SystemResetWarning,0836.7,5.00,000.00,029.3,026.8,000.0,037.9,030.9,30.9,-001.7,0012.92,0008.43,0007.93
2023-08-06 23:21:00,SystemResetWarning,0836.8,5.00,000.00,029.3,027.1,000.0,037.9,030.9,30.7,-001.7,0012.91,0008.46,0007.96
2023-08-06 23:22:00,SystemResetWarning,0836.7,5.01,000.00,029.4,027.4,000.0,038.0,031.0,30.8,-001.5,0012.76,0008.48,0008.00
2023-08-06 23:23:00,SystemResetWarning,0836.7,5.00,000.00,029.4,027.6,000.0,038.0,031.0,31.1,-001.6,0011.52,0008.49,0008.02
2023-08-06 23:24:00,SystemResetWarning,0836.8,5.00,000.00,029.4,027.8,000.0,038.0,031.1,31.2,-001.7,0011.49,0008.51,0008.06
2023-08-06 23:25:00,SystemResetWarning,0836.8,5.00,000.00,029.4,028.0,000.0,038.0,031.1,30.7,-001.8,0011.36,0008.51,0008.08
2023-08-06 23:26:00,SystemResetWarning,0836.9,5.00,000.00,029.5,028.1,000.0,038.0,031.1,30.5,-001.9,0011.44,0008.55,0008.10
2023-08-06 23:27:00,SystemResetWarning,0837.0,5.00,000.00,029.5,028.2,000.0,038.0,031.2,30.8,-001.8,0011.54,0008.61,0008.15
2023-08-06 23:28:00,SystemResetWarning,0837.0,5.00,000.00,029.5,028.3,000.0,038.0,031.2,30.4,-001.6,0011.48,0008.66,0008.20
2023-08-06 23:29:00,SystemResetWarning,0836.9,5.00,000.00,029.5,028.4,000.0,038.1,031.2,30.6,-001.6,0011.54,0008.69,0008.23
2023-08-06 23:30:00,SystemResetWarning,0836.9,5.00,000.00,029.6,028.4,000.0,038.1,031.3,31.1,-001.2,0012.25,0008.74,0008.27
2023-08-06 23:31:00,SystemResetWarning,0837.0,4.99,000.00,029.6,028.2,000.0,038.1,031.2,30.7,-000.5,0012.60,0008.79,0008.31
2023-08-06 23:32:00,SystemResetWarning,0837.0,5.00,000.00,029.6,026.5,000.0,037.9,031.0,30.8,-000.3,0012.81,0008.85,0008.34
2023-08-06 23:33:00,SystemResetWarning,0836.9,5.01,000.00,029.5,025.6,000.0,037.8,030.8,31.5,-000.4,0012.83,0008.87,0008.36
2023-08-06 23:34:00,SystemResetWarning,0836.9,5.01,000.00,029.4,025.6,000.0,037.8,030.7,31.3,-000.3,0012.89,0008.89,0008.39
2023-08-06 23:35:00,SystemResetWarning,0836.8,5.00,000.00,029.3,025.9,000.0,037.9,030.6,31.2,-000.1,0012.90,0008.89,0008.39
2023-08-06 23:36:00,SystemResetWarning,0836.7,5.00,000.00,029.3,026.3,000.0,037.9,030.7,31.1,0000.1,0012.94,0008.92,0008.40
2023-08-06 23:37:00,SystemResetWarning,0836.5,5.00,000.00,029.3,026.6,000.0,037.9,030.8,31.1,0000.4,0013.04,0008.93,0008.42
2023-08-06 23:38:00,SystemResetWarning,0836.3,5.00,000.00,029.3,027.0,000.0,037.9,030.9,31.6,0000.6,0013.35,0008.96,0008.43
2023-08-06 23:39:00,SystemResetWarning,0836.2,4.99,000.00,029.3,027.2,000.0,037.9,030.9,31.8,0000.2,0013.67,0008.98,0008.46
2023-08-06 23:40:00,SystemResetWarning,0836.2,4.99,000.00,029.3,027.5,000.0,037.9,030.9,32.1,0000.0,0013.65,0009.00,0008.49
2023-08-06 23:41:00,SystemResetWarning,0836.3,5.00,000.00,029.4,027.7,000.0,037.9,031.0,32.0,0000.3,0013.38,0009.01,0008.49
2023-08-06 23:42:00,SystemResetWarning,0836.6,5.00,000.00,029.4,027.9,000.0,037.9,031.1,31.9,0000.2,0012.78,0009.02,0008.49
2023-08-06 23:43:00,SystemResetWarning,0837.0,5.01,000.00,029.4,028.0,000.0,037.9,031.1,31.7,-000.0,0012.94,0009.04,0008.51
2023-08-06 23:44:00,SystemResetWarning,0837.2,5.01,000.00,029.4,028.1,000.0,038.0,031.1,31.2,0000.1,0013.23,0009.06,0008.52
2023-08-06 23:45:00,SystemResetWarning,0837.2,5.00,000.00,029.5,028.2,000.0,038.0,031.2,30.9,0000.0,0013.24,0009.08,0008.53
2023-08-06 23:46:00,SystemResetWarning,0837.2,5.00,000.00,029.5,028.3,000.0,038.0,031.2,30.7,0000.4,0013.65,0009.10,0008.52
2023-08-06 23:47:00,SystemResetWarning,0837.2,4.99,000.00,029.5,028.4,000.0,038.0,031.2,30.9,0000.1,0014.25,0009.08,0008.52
2023-08-06 23:48:00,SystemResetWarning,0837.2,4.99,000.00,029.6,028.4,000.0,038.0,031.2,31.3,-000.6,0014.28,0009.05,0008.50
2023-08-06 23:49:00,SystemResetWarning,0837.3,5.01,000.00,029.6,028.5,000.0,038.1,031.3,31.6,-001.1,0013.87,0009.01,0008.48
2023-08-06 23:50:00,SystemResetWarning,0837.4,4.99,000.00,029.6,027.7,000.0,038.0,031.2,31.5,-001.4,0013.81,0008.95,0008.43
2023-08-06 23:51:00,SystemResetWarning,0837.6,5.00,000.00,029.5,025.9,000.0,037.9,030.9,31.2,-001.0,0013.92,0008.95,0008.38
2023-08-06 23:52:00,SystemResetWarning,0837.6,5.00,000.00,029.5,025.3,000.0,037.8,030.7,31.2,-001.0,0014.05,0008.94,0008.34
2023-08-06 23:53:00,SystemResetWarning,0837.7,5.01,000.00,029.3,025.5,000.0,037.8,030.5,31.7,-001.2,0014.46,0008.92,0008.31
2023-08-06 23:54:00,SystemResetWarning,0837.6,5.01,000.00,029.3,025.9,000.0,037.8,030.5,31.9,-001.3,0014.85,0008.88,0008.27
2023-08-06 23:55:00,SystemResetWarning,0837.6,4.99,000.00,029.3,026.3,000.0,037.9,030.7,31.8,-001.3,0014.56,0008.86,0008.25
2023-08-06 23:56:00,SystemResetWarning,0837.3,5.00,000.00,029.3,026.6,000.0,037.9,030.7,32.0,-001.0,0014.47,0008.82,0008.23
2023-08-06 23:57:00,SystemResetWarning,0837.1,5.00,000.00,029.3,027.0,000.0,037.9,030.8,32.1,-001.1,0014.18,0008.80,0008.23
2023-08-06 23:58:00,SystemResetWarning,0836.9,4.99,000.00,029.3,027.2,000.0,037.9,030.9,31.9,-000.5,0014.07,0008.86,0008.24
2023-08-06 23:59:00,SystemResetWarning,0837.0,5.00,000.00,029.3,027.5,000.0,037.9,030.9,32.1,0000.4,0013.77,0008.89,0008.25
